Flag for Germany Weather past 2 weeks in Chemnitz, Saxony, Germany

Now
41 °F

Broken clouds.


Feels Like: 37 °F
Forecast: 26 / 60 °F
Wind: 6 mph from Northeast

Location: Altenburg Nobitz


UV Index: 3 (Moderate)

Visibility: N/A


Pressure: 30.42 "Hg

Humidity: 87%

Dew point: 37 °F

Location of ChemnitzLocation

Historic Weather in Chemnitz

°F

Chemnitz temperature yesterday

Maximum temperature yesterday: 46 °F (at 4:20 PM)
Minimum temperature yesterday: 41 °F (at 8:20 AM)
Average temperature yesterday: 44 °F

Past Weeks' High & Low Weather Summary

 TemperatureHumidityPressure
High73 °F (Apr 3, 1:50 PM)94% (Apr 12, 9:20 AM)30.42 "Hg (Apr 12, 9:20 AM)
Low39 °F (Apr 16, 8:20 AM)31% (Apr 2, 4:50 PM)29.65 "Hg (Apr 3, 3:20 PM)
Average56 °F62%29.97 "Hg
* Reported Apr 1 9:20 AM — Apr 16 9:50 AM, Chemnitz, Weather by CustomWeather, © 2014

Note: Actual official high and low records may vary slightly from our data, if they occured in-between our weather recording intervals... More about our weather records

Advertising

Historic Weather Conditions — Data for Previous 24 hours

 ConditionsComfort  
Time TempWeatherWind HumidityBarometerVisibility
9:50 AM
Apr 16
41 °FBroken clouds.5 mph87%30.42 "HgN/A
9:20 AM39 °FBroken clouds.6 mph93%30.42 "HgN/A
8:50 AM39 °FPartly sunny.6 mph93%30.42 "HgN/A
8:20 AM39 °FPartly sunny.5 mph93%30.39 "HgN/A
7:50 PM
Apr 15
41 °FPartly sunny.7 mph87%30.21 "HgN/A
7:20 PM41 °FPartly sunny.6 mph87%30.18 "HgN/A
6:50 PM41 °FRain. Partly sunny.15 mph87%30.18 "HgN/A
6:20 PM45 °FLight rain. Partly sunny.15 mph66%30.18 "HgN/A
5:50 PM46 °FPartly sunny.16 mph57%30.15 "HgN/A
5:20 PM46 °FScattered clouds.14 mph57%30.15 "HgN/A
4:50 PM46 °FPassing clouds.13 mph57%30.15 "HgN/A
4:20 PM46 °FSunny.14 mph53%30.15 "Hg10 mi
3:50 PM45 °FSunny.12 mph57%30.15 "Hg10 mi
3:20 PM45 °FPartly sunny.14 mph57%30.15 "HgN/A
2:50 PM45 °FPartly sunny.15 mph57%30.15 "HgN/A
2:20 PM45 °FPartly sunny.13 mph61%30.15 "HgN/A
1:50 PM45 °FPartly sunny.10 mph66%30.15 "HgN/A
1:20 PM45 °FPartly sunny.14 mph61%30.15 "HgN/A
12:50 PM45 °FPartly sunny.12 mph66%30.15 "HgN/A
12:20 PM45 °FPartly sunny.15 mph61%30.12 "HgN/A
11:50 AM45 °FPartly sunny.16 mph61%30.12 "HgN/A
11:20 AM45 °FPartly sunny.17 mph66%30.12 "HgN/A
10:50 AM45 °FPartly sunny.17 mph66%30.12 "HgN/A
10:20 AM43 °FPartly sunny.17 mph66%30.09 "HgN/A
Weather by CustomWeather, © 2014

See weather overview